Погода в Жлобине

Погода в Жлобине : погода сейчас, прогноз погоды и архив. Всё, что Вы хотите узнать о погоде в Жлобине!

Хотите узнать прогноз погоды в Жлобине? Тогда Вам сюда: Погода в Жлобине

Поиск расширенной информации на нашем сайте:

Другие новости

Новости СМИ2

Главная страница сайта

Новости сайта

02.10.2013

Напоминаем, что на нашем новом сайте вы можете получить высокодетализированные прогнозы погоды по пунктам России, СНГ и мира (включающие важные для авиации метеовеличины, такие как направление и скорость ветра, видимость, явления погоды, количество и форма облачности, нижняя и верхняя граница облачности), а также ознакомиться с разнообразными материалами по авиационной метеорологии и подборкой полезных ссылок на эту тему.

Сайт Метеоцентр.Азия посвящён разработке технологий оптимизации авиаметеорологического обслуживания, включая проектирование и перспективное создание нескольких автоматизированных авиаметеорологических систем:
- система выпуска высокодетальных прогностических карт явлений погоды для нижнего воздушного пространства по России и ближнему зарубежью;
- система верификации прогнозов TAF (выпускаемых синоптиками официальных АМСГ РФ и ближнего зарубежья) и AUTOTAF (выпускаемых сайтом Метеоцентр.Азия) - выявление ошибок, онлайн-сопоставление с фактической погодой METAR, автоматическое внесение коррективов в прогнозы при резком отклонении фактической погоды от прогноза, подсчёт оправдываемости прогнозов по элементам и в целом;
- система обработки, анализа и отображения авиаметеорологической информации для применения провайдерами метеорологической информации.


Погода в Жлобине - сегодня

Время (UTC), дата Ветер
(°,м/с) 
Видим.   Явления Облачность Т
(°С)
Тd
(°С)
f(%) Тe
(°С)
Pmin
(гПа)
dP
(гПа)
Po
(мм)
O2
(г/м3)
Тmin Tmax R s Состояние
почвы
12 21.05.17 010 (С) 30000 м  {ливн. осадки}  6/5 1000 м верхняя 
[Cu med, cong|Ci fib]
+23.2 +11.4 47 +26  1008.1  -1.1  744  274           
18 21.05.17 050 (СВ) 6{12}  30000 м    3/3 1000 м 
[Sc]
+17.1 +7.1 52 +17  1011.8  2.3  746  282    +23.4  0.0     
21 21.05.17 360 (С) 15000 м    ясно 
+13 +7.7 70 +13  1013.7  1.7  748  286           
00 22.05.17 360 (С) 13000 м    ясно 
+10 +6.1 77 +10  1014.7  0.8  748  290           
03 22.05.17 030 (СВ) 30000 м    ясно 
+8.1 +5 81 +8  1015.9  749  292           
06 22.05.17 360 (С) 30000 м    5/0 верхняя 
[Ci fib]
+14.4 +4.5 51 +16  1016.3  0.8  750  286  +7.7         
09 22.05.17 360 (С) 30000 м    ясно 
+18.3 +2.3 34 +19  1016.4  0.3  750  283           
12 22.05.17 350 (С) 30000 м    ясно 
+20.9 +0.9 26 +21  1015.1  -1.1  749  280           
15 22.05.17 350 (С) 30000 м    3/3 1000 м 
[Sc diur, vesp]
+21.4 +0.6 25 +21  1014.1  -1  748  279           
18 22.05.17 310 (СЗ) 30000 м    8/6 1000 м средняя 
[Sc diur, vesp|Ac lent]
+17.9 +4.8 42 +19  1014.1  -0.2  748  282    +21.6       
21 22.05.17 310 (СЗ) 30000 м    6/4 1000 м средняя 
[Sc|Ac trans]
+15.4 +8.1 62 +17  1014.9  0.5  748  284           
00 23.05.17 310 (СЗ) 25000 м    3/0 средняя 
[Ac lent]
+12 +8.6 80 +13  1014.9  748  287           
03 23.05.17 310 (СЗ) 23000 м    8/4 1000 м средняя, верхняя 
[Sc|Ac lent|Ci fib]
+11.4 +8.1 80 +13  1015.1  0.1  749  288           
06 23.05.17 310 (СЗ) 30000 м    4/1 1000 м верхняя 
[Sc|Cc]
+18 +9 56 +19  1015.1  0.4  749  281  +10.2         
09 23.05.17 290 (З) 30000 м    8/4 1000 м верхняя 
[Sc diur, vesp|Ci fib]
+20.5 +7.6 43 +21  1014.5  -0.4  749  279           
12 23.05.17 270 (З) 30000 м    8/4 1000 м верхняя 
[Sc diur, vesp|Ci fib]
+22.7 +5.6 33 +23  1013.3  -1  748  277           
15 23.05.17 310 (СЗ) 30000 м    4/4 1000 м 
[Sc diur, vesp]
+23.6 +4.8 30 +24  1012.1  -1.2  747  276           
18 23.05.17 330 (СЗ) 30000 м    3/3 1000 м средняя 
[Sc diur, vesp|Ac lent]
+19.9 +8.6 48 +21  1012.6  0.3  747  279    +23.6       
21 23.05.17 320 (СЗ) 26000 м    4/0 средняя 
[Ac trans]
+14.6 +5.3 54 +16  1013.6  0.7  748  285           
00 24.05.17 290 (З) 23000 м    6/6 1000 м 
[Sc]
+14.2 +5.3 55 +15  1013.2  -0.4  747  285           
06 24.05.17 180 (Ю) 20000 м  в посл. час ливневой дождь  10/8 600 м кучево-дожд., средняя 
[Cb cap|Ac As]
+14 +11.8 87 +19  1013.2  -0.2  747  284  +10.3       
09 24.05.17 240 (ЮЗ) 15000 м  слаб. ливневой дождь  10/8 600 м кучево-дожд., средняя 
[Cb cap|Ac As]
+15.1 +13.3 89 +22  1013.8  0.6  748  283         
15 24.05.17 230 (ЮЗ) 30000 м    10/5 1000 м средняя 
[Sc|Ac und]
+17.9 +13.3 74 +25  1012.1  -1.1  747  280         
18 24.05.17 360 (С) 17000 м  в посл. час ливневой дождь  8/8 600 м кучево-дожд. 
[Cb cap]
+15.4 +14 91 +23  1012.3  0.1  747  282    +18     
21 24.05.17 220 (ЮЗ) 19000 м  в посл. час ливневой дождь  10/10 1000 м кучево-дожд. 
[Cb cap]
+14.7 +12.9 89 +20  1012.9  0.7  747  283         
Время (UTC), дата Ветер
(°,м/с) 
Видим.   Явления Облачность Т
(°С)
Тd
(°С)
f(%) Тe
(°С)
Pmin
(гПа)
dP
(гПа)
Po
(мм)
O2
(г/м3)
Тmin Tmax R s Состояние
почвы

Для получения пояснительной информации подведите курсор к названию столбца.

ПОГОДА в Жлобине - архив

Всё, что Вы хотите узнать о погоде в Жлобине - удобно и подробно!

Выберите нужную дату (начиная с 1 января 2015* года) и нажмите кнопку "Найти".
Будут отображены архивные сводки погоды по пункту Жлобин, начиная с указанной даты.


Отображать данные в формате CSV (для использования в таблицах Excel)


Внимание! Наш архив погоды предназначен исключительно для личного некоммерческого использования в познавательных целях. Если Вам необходимы официальные справки о состоянии погоды (для производственных, юридических, коммерческих и т.п. целей), обращайтесь в органы Росгидромета.

*Примечание: данная дата относится к архиву по метеостанциям СССР (Россия, СНГ, Балтия).
Архив по метеостанциям Зарубежной Европы и Азии (кроме Китая) хранится 10 дней, по другим регионам земного шара (Китай, Африка, Америка, Австралия, Океания) - 1 день.

Жлобин - район местоположения метеостанции


Название, широта, долгота, высота метеостанции:
Жлобин 52.9°ш. 30°д. 142 м над ур. моря [Беларусь]

Дополнительная информация

В oтличие oт бoльшинства пoгoдных сайтoв мы публикуем пoдрoбную метеoинфoрмацию в детальнoм прoфессиoнальнoм фoрмате.

Характеристики температуры и влажнoсти вoздуха измеряются на высoте 2 м в тени вдали oт зданий и деревьев.
Скoрoсть ветра измеряется на высoте 10 м (на урoвне рoста челoвека скoрoсть ветра ниже в 1.5-2 раза). Если метеoстанция нахoдится в гoрoде или в лесу, тo скoрoсть ветра занижена на 2-4 м/с пo сравнению с oткрытым местoм. Скoрoсть ветра над акватoриями крупных рек и oзёр, а также на вершинах хoлмoв на 2-5 м/с выше, чем в oбычных услoвиях.
Атмoсфернoе давление в разных тoчках местнoсти мoжет значительнo oтличаться oт давления на метеoстанции, в зависимoсти oт услoвий рельефа (при пoдъёме на 10 м давление пoнижается примернo на 1 мм рт.ст.).